Regional Weather Roundup
Issued by NWS

Home | Current Version | Previous Version | Graphics & Text | Print | Product List | Glossary On
Versions: 1 2 3 4 5 6 7 8 9 10 11 12 13 14 15 16 17 18 19 20 21 22 23 24 25 26 27 28 29 30 31 32 33 34 35 36 37 38 39 40 41 42 43 44 45 46 47 48 49 50
000
ASUS43 KFSD 291410
RWRSD

WEATHER ROUNDUP FOR SOUTH DAKOTA
NATIONAL WEATHER SERVICE SIOUX FALLS SD
900 AM CDT FRI AUG 29 2014

NOTE: "FAIR" INDICATES FEW OR NO CLOUDS BELOW 12,000 FEET WITH NO
SIGNIFICANT WEATHER AND/OR OBSTRUCTIONS TO VISIBILITY.


SDZ001>005-009-010-012>017-291500-
NORTHWEST AND NORTH CENTRAL SOUTH DAKOTA

CITY           SKY/WX    TMP DP  RH WIND       PRES   REMARKS
BUFFALO          N/A     64  52  64 N23       29.92S
FAITH            N/A     61  57  87 NW22G31   29.89R
MOBRIDGE       FOG       63  63 100 CALM      29.80S VSB 1/4
$$

SDZ012>016-024>037-041>051-057-063-072>074-291500-
SOUTHWEST AND SOUTH CENTRAL SOUTH DAKOTA

CITY           SKY/WX    TMP DP  RH WIND       PRES   REMARKS
RAPID CTY ARPT MOSUNNY   71  51  49 NW23G31   29.96R
PIERRE         FOG       66  66 100 W3        29.81F VSB 1/2
CUSTER         MOSUNNY   62  46  55 N7        30.08R
ELLSWORTH AFB  MOSUNNY   70  52  52 N26G35    29.96R
PHILIP         MOSUNNY   60  56  86 W7        29.88R
PINE RIDGE     SUNNY     58  54  86 CALM      29.95R
WINNER         PTSUNNY   67  62  84 W10       29.85R
$$

SDZ004>011-016>023-039-040-291500-
NORTHEAST SOUTH DAKOTA

CITY           SKY/WX    TMP DP  RH WIND       PRES   REMARKS
ABERDEEN       CLOUDY    64  64 100 NW8       29.79F
WATERTOWN      FOG       66  66 100 N7        29.79F VSB 3/4
SISSETON         N/A     66  66 100 CALM      29.77F
$$

SDZ017-020-022-023-036>040-048>070-291500-
SOUTHEAST SOUTH DAKOTA

CITY           SKY/WX    TMP DP  RH WIND       PRES   REMARKS
SIOUX FALLS    CLOUDY    70  68  93 SW3       29.80R
HURON          CLOUDY    69  67  93 N5        29.78F FOG
CHAMBERLAIN    CLOUDY    67  66  97 NW7       29.83R
MITCHELL       CLOUDY    69  69 100 CALM      29.79S FOG
YANKTON        CLOUDY    70  66  88 NW3       29.80S
$$

ABBREVIATIONS USED IN REMARKS
   TC - TEMPERATURE IN CELSIUS
  WCI - WIND CHILL INDEX
   HX - HEAT INDEX
  VSB - VISIBILITY




USA.gov is the U.S. government's official web portal to all federal, state and local government web resources and services.